Accueil
METAR-TAF:

METAR-TAF

Aéroports :

Payerne, Suisse

Aérodrome de Payerne

latitude: 46-49N, longitude: 006-57E, altitude: 490 m

Observation

Le bulletin a été fait il y a 30 minutes, à 09:50 UTC
Vent 13 kt de nord-est
Température -1°C
Humidité 80%
Pression 1011 hPa
Visibilité: 7000 m
Ciel couvert à une hauteur de 1900 ft

METAR: LSMP 240950Z 04013KT 7000 OVC019 M01/M04 Q1011 RMK WHT

Heure: 11:20 (10:20 UTC)


TAF: absent

Observations et prévisions météorologiques de plus de 4000 aéroports (messages METAR et TAF).

Les stations disponibles sont représentées par des disques jaunes et rouges sur la carte.

Passer la souris dessus pour voir le nom de la station.

Cliquer dessus pour voir les observations et prévisions météorologiques.

Pour changer de carte: cliquez sur les boutons verts avec une croix noire pour zoomer, sur le bouton vert avec un tiret pour effectuer un zoom arrière, ou sur les flèches vertes pour les cartes adjacentes.


METAR-TAF: